TimeCST,TemperatureF,Dew PointF,Humidity,Sea Level PressureIn,VisibilityMPH,Wind Direction,Wind SpeedMPH,Gust SpeedMPH,PrecipitationIn,Events,Conditions,WindDirDegrees,DateUTC
12:13 AM,1.4,-5.8,72,30.34,10.0,NW,17.3,-,N/A,,Scattered Clouds,320,2013-01-20 06:13:00
12:34 AM,-0.4,-7.6,72,30.35,10.0,NW,15.0,-,N/A,,Scattered Clouds,320,2013-01-20 06:34:00
12:53 AM,-0.4,-7.6,72,30.34,10.0,NNW,16.1,-,N/A,,Scattered Clouds,330,2013-01-20 06:53:00
1:14 AM,1.4,-7.6,66,30.35,10.0,NNW,15.0,-,N/A,,Clear,330,2013-01-20 07:14:00
1:33 AM,1.4,-5.8,72,30.35,10.0,NW,16.1,-,N/A,,Clear,320,2013-01-20 07:33:00
1:53 AM,1.4,-5.8,72,30.35,10.0,NW,16.1,-,N/A,,Clear,320,2013-01-20 07:53:00
2:13 AM,1.4,-7.6,66,30.36,10.0,NW,15.0,-,N/A,,Clear,320,2013-01-20 08:13:00
2:34 AM,1.4,-7.6,66,30.36,10.0,NNW,13.8,-,N/A,,Clear,330,2013-01-20 08:34:00
2:53 AM,-0.4,-7.6,72,30.37,10.0,NNW,11.5,-,N/A,,Clear,330,2013-01-20 08:53:00
3:13 AM,-0.4,-7.6,72,30.37,10.0,NNW,8.1,-,N/A,,Clear,330,2013-01-20 09:13:00
3:33 AM,-0.4,-7.6,72,30.35,10.0,NNW,9.2,-,N/A,,Clear,340,2013-01-20 09:33:00
3:53 AM,1.4,-7.6,66,30.34,10.0,North,12.7,-,N/A,,Clear,350,2013-01-20 09:53:00
4:13 AM,1.4,-7.6,66,30.35,10.0,NNW,10.4,-,N/A,,Clear,330,2013-01-20 10:13:00
4:33 AM,1.4,-7.6,66,30.35,10.0,NNW,10.4,-,N/A,,Clear,330,2013-01-20 10:33:00
4:53 AM,1.4,-5.8,72,30.36,10.0,NNW,10.4,-,N/A,,Scattered Clouds,330,2013-01-20 10:53:00
5:13 AM,1.4,-5.8,72,30.35,10.0,NW,10.4,-,N/A,,Scattered Clouds,310,2013-01-20 11:13:00
5:33 AM,1.4,-5.8,72,30.34,10.0,NW,9.2,-,N/A,,Clear,320,2013-01-20 11:33:00
5:53 AM,1.4,-5.8,72,30.33,10.0,NNW,8.1,-,N/A,,Clear,330,2013-01-20 11:53:00
6:14 AM,1.4,-5.8,72,30.34,10.0,NW,6.9,-,N/A,,Mostly Cloudy,310,2013-01-20 12:14:00
6:33 AM,1.4,-5.8,72,30.34,10.0,WNW,5.8,-,N/A,,Overcast,290,2013-01-20 12:33:00
6:53 AM,1.4,-5.8,72,30.35,10.0,NW,5.8,-,N/A,,Overcast,310,2013-01-20 12:53:00
7:13 AM,1.4,-5.8,72,30.37,10.0,WNW,6.9,-,N/A,,Overcast,290,2013-01-20 13:13:00
7:34 AM,1.4,-5.8,72,30.37,10.0,WNW,6.9,-,N/A,,Overcast,290,2013-01-20 13:34:00
7:53 AM,1.4,-4.0,78,30.37,10.0,WNW,6.9,-,N/A,,Overcast,290,2013-01-20 13:53:00
8:13 AM,1.4,-4.0,78,30.38,5.0,WNW,6.9,-,N/A,Snow,Light Snow,290,2013-01-20 14:13:00
8:33 AM,3.2,-2.2,78,30.39,7.0,WNW,6.9,-,N/A,Snow,Light Snow,290,2013-01-20 14:33:00
8:54 AM,3.2,-2.2,78,30.40,7.0,WNW,9.2,-,N/A,,Overcast,290,2013-01-20 14:54:00
9:13 AM,3.2,-2.2,78,30.40,7.0,WNW,8.1,-,N/A,,Overcast,290,2013-01-20 15:13:00
9:33 AM,3.2,-2.2,78,30.40,10.0,WNW,6.9,-,N/A,,Overcast,300,2013-01-20 15:33:00
9:53 AM,3.2,-2.2,78,30.40,10.0,WNW,6.9,-,N/A,,Scattered Clouds,290,2013-01-20 15:53:00
10:13 AM,5.0,-2.2,72,30.40,10.0,West,6.9,-,N/A,,Mostly Cloudy,280,2013-01-20 16:13:00
10:34 AM,6.8,-0.4,72,30.42,10.0,WNW,8.1,-,N/A,,Mostly Cloudy,290,2013-01-20 16:34:00
10:53 AM,6.8,-0.4,72,30.42,10.0,WNW,10.4,-,N/A,,Mostly Cloudy,290,2013-01-20 16:53:00
11:14 AM,8.6,-0.4,67,30.41,10.0,WNW,11.5,-,N/A,,Mostly Cloudy,290,2013-01-20 17:14:00
11:33 AM,8.6,-0.4,67,30.41,10.0,West,13.8,-,N/A,,Scattered Clouds,280,2013-01-20 17:33:00
11:53 AM,8.6,-0.4,67,30.39,10.0,WNW,12.7,-,N/A,,Mostly Cloudy,290,2013-01-20 17:53:00
12:13 PM,8.6,-0.4,67,30.39,10.0,WNW,13.8,-,N/A,,Overcast,290,2013-01-20 18:13:00
12:33 PM,8.6,1.4,73,30.38,10.0,West,17.3,-,N/A,,Overcast,280,2013-01-20 18:33:00
12:54 PM,8.6,1.4,73,30.36,10.0,WNW,13.8,-,N/A,,Overcast,290,2013-01-20 18:54:00
1:13 PM,8.6,1.4,73,30.36,10.0,WNW,15.0,21.9,N/A,,Overcast,290,2013-01-20 19:13:00
1:53 PM,10.4,1.4,67,30.35,7.0,WNW,16.1,-,N/A,,Overcast,300,2013-01-20 19:53:00
2:13 PM,10.4,3.2,73,30.34,2.0,NW,18.4,-,N/A,Snow,Light Snow,310,2013-01-20 20:13:00
2:33 PM,10.4,3.2,73,30.34,2.0,NW,16.1,-,N/A,Snow,Light Snow,310,2013-01-20 20:33:00
2:53 PM,10.4,3.2,73,30.34,1.8,NW,18.4,25.3,N/A,Snow,Light Snow,310,2013-01-20 20:53:00
3:13 PM,10.4,5.0,79,30.34,0.8,NW,21.9,-,N/A,Snow,Light Snow,310,2013-01-20 21:13:00
3:33 PM,8.6,1.4,73,30.34,2.0,NW,19.6,-,N/A,Snow,Light Snow,320,2013-01-20 21:33:00
3:53 PM,6.8,1.4,79,30.34,1.5,NW,21.9,-,N/A,,Haze,320,2013-01-20 21:53:00
4:13 PM,6.8,1.4,79,30.35,0.8,NW,23.0,27.6,N/A,Snow,Light Snow,320,2013-01-20 22:13:00
4:33 PM,6.8,-2.2,67,30.35,7.0,NW,16.1,-,N/A,,Scattered Clouds,320,2013-01-20 22:33:00
4:53 PM,6.8,-0.4,72,30.34,5.0,NW,15.0,-,N/A,,Haze,310,2013-01-20 22:53:00
5:13 PM,5.0,-2.2,72,30.34,10.0,NW,18.4,-,N/A,,Scattered Clouds,320,2013-01-20 23:13:00
5:33 PM,3.2,-4.0,72,30.34,10.0,NW,16.1,-,N/A,,Clear,320,2013-01-20 23:33:00
5:53 PM,3.2,-2.2,78,30.35,10.0,NW,17.3,-,N/A,,Clear,320,2013-01-20 23:53:00
6:14 PM,3.2,-5.8,66,30.35,10.0,NW,16.1,26.5,N/A,,Clear,320,2013-01-21 00:14:00
6:34 PM,1.4,-5.8,72,30.35,10.0,NW,15.0,-,N/A,,Clear,320,2013-01-21 00:34:00
6:53 PM,1.4,-7.6,66,30.35,10.0,NW,15.0,18.4,N/A,,Clear,310,2013-01-21 00:53:00
7:13 PM,1.4,-7.6,66,30.36,10.0,NW,15.0,20.7,N/A,,Clear,320,2013-01-21 01:13:00
7:33 PM,-0.4,-7.6,72,30.35,10.0,NW,13.8,-,N/A,,Clear,320,2013-01-21 01:33:00
7:53 PM,-0.4,-9.4,66,30.35,10.0,NW,11.5,-,N/A,,Clear,320,2013-01-21 01:53:00
8:13 PM,-0.4,-9.4,66,30.35,10.0,NW,10.4,-,N/A,,Clear,320,2013-01-21 02:13:00
8:33 PM,-2.2,-9.4,71,30.35,10.0,NW,10.4,-,N/A,,Clear,310,2013-01-21 02:33:00
8:53 PM,-2.2,-9.4,71,30.35,10.0,NW,10.4,16.1,N/A,,Clear,310,2013-01-21 02:53:00
9:13 PM,-2.2,-9.4,71,30.35,10.0,NW,13.8,-,N/A,,Clear,310,2013-01-21 03:13:00
9:33 PM,-2.2,-9.4,71,30.35,10.0,NW,16.1,-,N/A,,Clear,320,2013-01-21 03:33:00
9:53 PM,-2.2,-9.4,71,30.35,10.0,NW,19.6,25.3,N/A,,Clear,310,2013-01-21 03:53:00
10:13 PM,-2.2,-11.2,66,30.35,7.0,NW,21.9,29.9,N/A,,Scattered Clouds,310,2013-01-21 04:13:00
10:33 PM,-2.2,-13.0,60,30.36,10.0,NW,24.2,31.1,N/A,,Clear,310,2013-01-21 04:33:00
10:53 PM,-4.0,-11.2,71,30.36,7.0,NW,23.0,26.5,N/A,,Scattered Clouds,310,2013-01-21 04:53:00
11:13 PM,-5.8,-16.6,60,30.37,10.0,NW,23.0,29.9,N/A,,Scattered Clouds,310,2013-01-21 05:13:00
11:33 PM,-7.6,-16.6,65,30.37,10.0,NW,24.2,27.6,N/A,,Scattered Clouds,320,2013-01-21 05:33:00
11:53 PM,-7.6,-16.6,65,30.38,10.0,NW,19.6,-,N/A,,Scattered Clouds,320,2013-01-21 05:53:00